Location: Parc National du Mont-Orford
(45.3122°N, 72.2403°W)
Time: 17:35:26
(UTC-05:00)

Envisat - Pass Details

Date: 24 January 2018
Orbit: 764 x 766 km, 98.2° (Epoch: 22 February)

Event Time Altitude Azimuth Distance (km) Brightness Sun altitude
Exits shadow 19:39:15 52° 310° (NW) 952 3.6 -30.5°
Drops below altitude 10° 19:43:17 10° 341° (NNW) 2,312 5.7 -31.2°
Sets 19:45:38 0° 344° (NNW) 3,243 6.5 -31.6°
